Hutchinson, KS

3:28 AM CDT on September 20, 2019 (GMT -0500)
Hutchinson Municipal

Weather History for KHUT - July, 2019

Change the Weather History Date:

Sunday, July 14, 2019

  Actual Average Record
Temperature  
Mean Temperature 80 °F -  
Max Temperature 93 °F 91 °F 108 °F (2003)
Min Temperature 66 °F 66 °F 55 °F (2008)
Cooling Degree Days 14    
Growing Degree Days 30 (Base 50)    
Moisture  
Dew Point 68 °F    
Average Humidity 68    
Maximum Humidity 90    
Minimum Humidity 44    
Precipitation  
Precipitation 0.00 in - - ()
Sea Level Pressure  
Sea Level Pressure 29.98 in    
Wind  
Wind Speed 4 mph (ESE)    
Max Wind Speed 10 mph    
Max Gust Speed -    
Visibility 10 miles    
Events      
Averages and records for this station are not official NWS values.
T = Trace of Precipitation, MM = Missing Value Source: NWS Daily Summary

Daily Weather History Graph

Daily Weather History Graph

Search for Another Location

Airport or City:

Astronomy

Jul. 14, 2019 Rise Set
Actual Time 6:19 AM CDT 8:54 PM CDT
Civil Twilight 5:49 AM CDT 9:25 PM CDT
Nautical Twilight 5:11 AM CDT 10:03 PM CDT
Astronomical Twilight 4:28 AM CDT 10:45 PM CDT
Moon 7:18 PM CDT (7/14) 4:21 AM CDT (7/14)
Length of Visible Light 15h 35m
Length of Day
14h 34m
Waxing Gibbous, 95% of the Moon is Illuminated
Jul 14
Waxing Gibbous
Jul 16
Full
Jul 24
Last Quarter
Jul 31
New
Aug 7
First Quarter

Hourly Weather History & Observations

Time (CDT) Temp. Heat Index Dew Point Humidity Pressure Visibility Wind Dir Wind Speed Gust Speed Precip Events Conditions
12:52 AM 68.0 °F - 64.0 °F 87% 29.99 in 10.0 mi East 5.8 mph - N/A   Clear
1:52 AM 68.0 °F - 64.0 °F 87% 29.99 in 10.0 mi East 5.8 mph - N/A   Clear
2:52 AM 68.0 °F - 63.0 °F 84% 29.98 in 10.0 mi Calm Calm - N/A   Clear
3:52 AM 68.0 °F - 63.0 °F 84% 29.98 in 10.0 mi Calm Calm - N/A   Clear
4:52 AM 66.9 °F - 64.0 °F 90% 29.98 in 10.0 mi Calm Calm - N/A   Clear
5:52 AM 66.0 °F - 63.0 °F 90% 29.99 in 10.0 mi Calm Calm - N/A   Clear
6:52 AM 66.0 °F - 63.0 °F 90% 30.00 in 10.0 mi Calm Calm - N/A   Clear
7:52 AM 73.0 °F - 66.9 °F 81% 30.01 in 10.0 mi Calm Calm - N/A   Clear
8:52 AM 79.0 °F - 69.1 °F 72% 30.02 in 10.0 mi Calm Calm - N/A   Clear
9:52 AM 82.9 °F 87.5 °F 71.1 °F 67% 30.02 in 10.0 mi SE 4.6 mph - N/A   Clear
10:29 AM 82.9 °F 87.5 °F 71.1 °F 67% 30.09 in 10.0 mi South 3.5 mph - N/A   Mostly Cloudy
10:48 AM 82.4 °F 86.3 °F 69.8 °F 66% 30.08 in 10.0 mi SE 3.5 mph - N/A   Mostly Cloudy
10:52 AM 82.9 °F 87.5 °F 71.1 °F 67% 30.02 in 10.0 mi SSE 3.5 mph - N/A   Mostly Cloudy
11:52 AM 87.1 °F 92.0 °F 70.0 °F 57% 30.01 in 10.0 mi SSW 4.6 mph - N/A   Scattered Clouds
12:52 PM 90.0 °F 94.5 °F 69.1 °F 50% 30.00 in 10.0 mi East 9.2 mph - N/A   Partly Cloudy
1:52 PM 90.0 °F 94.5 °F 69.1 °F 50% 29.98 in 10.0 mi East 8.1 mph - N/A   Partly Cloudy
2:52 PM 91.0 °F 95.6 °F 69.1 °F 48% 29.96 in 10.0 mi Variable 6.9 mph - N/A   Partly Cloudy
3:52 PM 91.0 °F 95.6 °F 69.1 °F 48% 29.95 in 10.0 mi ENE 6.9 mph - N/A   Partly Cloudy
4:52 PM 93.0 °F 97.4 °F 68.0 °F 44% 29.94 in 10.0 mi ESE 10.4 mph - N/A   Partly Cloudy
5:52 PM 91.9 °F 96.9 °F 69.1 °F 47% 29.92 in 10.0 mi East 9.2 mph - N/A   Clear
6:52 PM 91.0 °F 95.6 °F 69.1 °F 48% 29.90 in 10.0 mi East 9.2 mph - N/A   Clear
7:52 PM 88.0 °F 92.1 °F 69.1 °F 53% 29.90 in 10.0 mi ESE 8.1 mph - N/A   Clear
8:52 PM 82.0 °F 85.9 °F 70.0 °F 67% 29.90 in 10.0 mi ESE 6.9 mph - N/A   Clear
9:52 PM 81.0 °F 84.9 °F 71.1 °F 72% 29.92 in 10.0 mi ESE 6.9 mph - N/A   Clear
10:52 PM 78.1 °F - 71.1 °F 79% 29.94 in 10.0 mi SSE 5.8 mph - N/A   Clear
11:52 PM 75.9 °F - 70.0 °F 82% 29.94 in 10.0 mi SE 4.6 mph - N/A   Clear